Year,Month,Day,Hour,Minute,Value (Times are PST for windspeed in km/hr)
2017,05,22,00,00,1.80
2017,05,22,00,01,2.20
2017,05,22,00,02,1.40
2017,05,22,00,03,1.10
2017,05,22,00,04,2.60
2017,05,22,00,05,1.90
2017,05,22,00,06,2.30
2017,05,22,00,07,4.50
2017,05,22,00,08,1.80
2017,05,22,00,09,1.60
2017,05,22,00,10,1.60
2017,05,22,00,11,3.00
2017,05,22,00,12,1.80
2017,05,22,00,13,1.10
2017,05,22,00,14,1.00
2017,05,22,00,15,1.80
2017,05,22,00,16,1.90
2017,05,22,00,17,1.70
2017,05,22,00,18,0.90
2017,05,22,00,19,0.60
2017,05,22,00,20,2.60
2017,05,22,00,21,1.60
2017,05,22,00,22,1.50
2017,05,22,00,23,1.90
2017,05,22,00,24,3.30
2017,05,22,00,25,6.40
2017,05,22,00,26,7.00
2017,05,22,00,27,6.00
2017,05,22,00,28,5.10
2017,05,22,00,29,6.70
2017,05,22,00,30,5.00
2017,05,22,00,31,5.00
2017,05,22,00,32,3.60
2017,05,22,00,33,4.70
2017,05,22,00,34,3.90
2017,05,22,00,35,3.80
2017,05,22,00,36,2.90
2017,05,22,00,37,2.30
2017,05,22,00,38,3.70
2017,05,22,00,39,2.00
2017,05,22,00,40,2.50
2017,05,22,00,41,2.10
2017,05,22,00,42,2.60
2017,05,22,00,43,1.80
2017,05,22,00,44,3.20
2017,05,22,00,45,4.00
2017,05,22,00,46,1.70
2017,05,22,00,47,1.70
2017,05,22,00,48,1.40
2017,05,22,00,49,2.30
2017,05,22,00,50,2.30
2017,05,22,00,51,2.60
2017,05,22,00,52,4.30
2017,05,22,00,53,2.50
2017,05,22,00,54,0.80
2017,05,22,00,55,2.20
2017,05,22,00,56,1.80
2017,05,22,00,57,1.50
2017,05,22,00,58,3.50
2017,05,22,00,59,1.10
2017,05,22,01,00,1.30
2017,05,22,01,01,1.50
2017,05,22,01,02,1.40
2017,05,22,01,03,3.30
2017,05,22,01,04,2.00
2017,05,22,01,05,0.30
2017,05,22,01,06,1.40
2017,05,22,01,07,1.90
2017,05,22,01,08,1.70
2017,05,22,01,09,0.90
2017,05,22,01,10,1.20
2017,05,22,01,11,0.90
2017,05,22,01,12,1.00
2017,05,22,01,13,1.00
2017,05,22,01,14,0.30
2017,05,22,01,15,0.80
2017,05,22,01,16,1.70
2017,05,22,01,17,2.00
2017,05,22,01,18,2.50
2017,05,22,01,19,1.00
2017,05,22,01,20,0.20
2017,05,22,01,21,0.40
2017,05,22,01,22,0.60
2017,05,22,01,23,0.20
2017,05,22,01,24,0.70
2017,05,22,01,25,2.20
2017,05,22,01,26,1.00
2017,05,22,01,27,0.80
2017,05,22,01,28,0.60
2017,05,22,01,29,1.40
2017,05,22,01,30,0.50
2017,05,22,01,31,0.20
2017,05,22,01,32,0.50
2017,05,22,01,33,0.00
2017,05,22,01,34,0.00
2017,05,22,01,35,0.20
2017,05,22,01,36,0.00
2017,05,22,01,37,0.00
2017,05,22,01,38,0.10
2017,05,22,01,39,0.00
2017,05,22,01,40,0.00
2017,05,22,01,41,0.10
2017,05,22,01,42,1.40
2017,05,22,01,43,2.60
2017,05,22,01,44,2.20
2017,05,22,01,45,1.90
2017,05,22,01,46,2.10
2017,05,22,01,47,1.70
2017,05,22,01,48,1.20
2017,05,22,01,49,1.60
2017,05,22,01,50,1.90
2017,05,22,01,51,1.90
2017,05,22,01,52,1.80
2017,05,22,01,53,1.90
2017,05,22,01,54,1.50
2017,05,22,01,55,2.60
2017,05,22,01,56,1.90
2017,05,22,01,57,1.60
2017,05,22,01,58,1.60
2017,05,22,01,59,1.60
2017,05,22,02,00,3.80
2017,05,22,02,01,1.30
2017,05,22,02,02,1.50
2017,05,22,02,03,1.90
2017,05,22,02,04,3.90
2017,05,22,02,05,2.30
2017,05,22,02,06,2.60
2017,05,22,02,07,1.90
2017,05,22,02,08,1.80
2017,05,22,02,09,1.40
2017,05,22,02,10,1.70
2017,05,22,02,11,1.50
2017,05,22,02,12,2.20
2017,05,22,02,13,1.10
2017,05,22,02,14,2.00
2017,05,22,02,15,2.60
2017,05,22,02,16,1.90
2017,05,22,02,17,1.80
2017,05,22,02,18,2.70
2017,05,22,02,19,2.10
2017,05,22,02,20,2.00
2017,05,22,02,21,1.00
2017,05,22,02,22,1.10
2017,05,22,02,23,1.60
2017,05,22,02,24,0.90
2017,05,22,02,25,1.40
2017,05,22,02,26,2.30
2017,05,22,02,27,2.00
2017,05,22,02,28,3.40
2017,05,22,02,29,3.60
2017,05,22,02,30,2.60
2017,05,22,02,31,3.10
2017,05,22,02,32,3.50
2017,05,22,02,33,4.30
2017,05,22,02,34,4.20
2017,05,22,02,35,2.90
2017,05,22,02,36,2.60
2017,05,22,02,37,2.40
2017,05,22,02,38,3.60
2017,05,22,02,39,2.70
2017,05,22,02,40,1.60
2017,05,22,02,41,1.90
2017,05,22,02,42,1.80
2017,05,22,02,43,1.40
2017,05,22,02,44,1.30
2017,05,22,02,45,1.60
2017,05,22,02,46,1.10
2017,05,22,02,47,2.10
2017,05,22,02,48,1.20
2017,05,22,02,49,2.00
2017,05,22,02,50,1.80
2017,05,22,02,51,2.00
2017,05,22,02,52,1.50
2017,05,22,02,53,2.30
2017,05,22,02,54,1.90
2017,05,22,02,55,2.00
2017,05,22,02,56,2.60
2017,05,22,02,57,1.80
2017,05,22,02,58,1.70
2017,05,22,02,59,1.20
2017,05,22,03,00,1.60
2017,05,22,03,01,0.80
2017,05,22,03,02,0.80
2017,05,22,03,03,0.80
2017,05,22,03,04,0.40
2017,05,22,03,05,1.80
2017,05,22,03,06,1.50
2017,05,22,03,07,1.70
2017,05,22,03,08,2.40
2017,05,22,03,09,2.40
2017,05,22,03,10,2.50
2017,05,22,03,11,2.30
2017,05,22,03,12,2.30
2017,05,22,03,13,2.20
2017,05,22,03,14,1.50
2017,05,22,03,15,1.90
2017,05,22,03,16,1.60
2017,05,22,03,17,1.90
2017,05,22,03,18,2.20
2017,05,22,03,19,1.60
2017,05,22,03,20,1.80
2017,05,22,03,21,1.20
2017,05,22,03,22,1.50
2017,05,22,03,23,1.50
2017,05,22,03,24,2.00
2017,05,22,03,25,1.60
2017,05,22,03,26,1.80
2017,05,22,03,27,2.30
2017,05,22,03,28,1.60
2017,05,22,03,29,1.90
2017,05,22,03,30,1.60
2017,05,22,03,31,2.40
2017,05,22,03,32,1.50
2017,05,22,03,33,2.40
2017,05,22,03,34,2.50
2017,05,22,03,35,3.00
2017,05,22,03,36,2.60
2017,05,22,03,37,2.10
2017,05,22,03,38,0.60
2017,05,22,03,39,0.00
2017,05,22,03,40,1.00
2017,05,22,03,41,1.60
2017,05,22,03,42,2.30
2017,05,22,03,43,2.30
2017,05,22,03,44,2.50
2017,05,22,03,45,2.30
2017,05,22,03,46,2.30
2017,05,22,03,47,1.90
2017,05,22,03,48,3.00
2017,05,22,03,49,2.30
2017,05,22,03,50,1.90
2017,05,22,03,51,0.80
2017,05,22,03,52,1.40
2017,05,22,03,53,1.10
2017,05,22,03,54,0.40
2017,05,22,03,55,0.80
2017,05,22,03,56,0.00
2017,05,22,03,57,0.60
2017,05,22,03,58,2.30
2017,05,22,03,59,1.10
2017,05,22,04,00,1.60
2017,05,22,04,01,2.70
2017,05,22,04,02,2.00
2017,05,22,04,03,1.50
2017,05,22,04,04,2.30
2017,05,22,04,05,2.10
2017,05,22,04,06,1.90
2017,05,22,04,07,2.20
2017,05,22,04,08,2.70
2017,05,22,04,09,2.30
2017,05,22,04,10,1.40
2017,05,22,04,11,1.20
2017,05,22,04,12,2.40
2017,05,22,04,13,1.00
2017,05,22,04,14,0.30
2017,05,22,04,15,0.90
2017,05,22,04,16,0.60
2017,05,22,04,17,2.60
2017,05,22,04,18,2.20
2017,05,22,04,19,1.90
2017,05,22,04,20,2.90
2017,05,22,04,21,3.40
2017,05,22,04,22,4.10
2017,05,22,04,23,2.30
2017,05,22,04,24,4.70
2017,05,22,04,25,3.50
2017,05,22,04,26,2.10
2017,05,22,04,27,4.00
2017,05,22,04,28,3.90
2017,05,22,04,29,3.00
2017,05,22,04,30,2.70
2017,05,22,04,31,3.40
2017,05,22,04,32,2.80
2017,05,22,04,33,3.10
2017,05,22,04,34,5.00
2017,05,22,04,35,3.10
2017,05,22,04,36,3.40
2017,05,22,04,37,4.40
2017,05,22,04,38,5.40
2017,05,22,04,39,3.50
2017,05,22,04,40,4.00
2017,05,22,04,41,2.90
2017,05,22,04,42,1.40
2017,05,22,04,43,3.20
2017,05,22,04,44,2.50
2017,05,22,04,45,4.40
2017,05,22,04,46,3.50
2017,05,22,04,47,2.60
2017,05,22,04,48,3.30
2017,05,22,04,49,2.20
2017,05,22,04,50,2.20
2017,05,22,04,51,3.10
2017,05,22,04,52,2.00
2017,05,22,04,53,1.90
2017,05,22,04,54,2.80
2017,05,22,04,55,2.70
2017,05,22,04,56,1.90
2017,05,22,04,57,3.50
2017,05,22,04,58,3.90
2017,05,22,04,59,2.60
2017,05,22,05,00,2.40
2017,05,22,05,01,2.10
2017,05,22,05,02,1.90
2017,05,22,05,03,2.30
2017,05,22,05,04,1.80
2017,05,22,05,05,2.50
2017,05,22,05,06,4.30
2017,05,22,05,07,2.90
2017,05,22,05,08,1.40
2017,05,22,05,09,1.90
2017,05,22,05,10,1.90
2017,05,22,05,11,1.90
2017,05,22,05,12,1.70
2017,05,22,05,13,2.20
2017,05,22,05,14,2.90
2017,05,22,05,15,2.80
2017,05,22,05,16,1.60
2017,05,22,05,17,2.90
2017,05,22,05,18,3.40
2017,05,22,05,19,1.80
2017,05,22,05,20,1.40
2017,05,22,05,21,1.90
2017,05,22,05,22,1.80
2017,05,22,05,23,2.30
2017,05,22,05,24,1.90
2017,05,22,05,25,0.90
2017,05,22,05,26,1.50
2017,05,22,05,27,1.30
2017,05,22,05,28,1.50
2017,05,22,05,29,0.60
2017,05,22,05,30,1.50
2017,05,22,05,31,1.40
2017,05,22,05,32,1.70
2017,05,22,05,33,0.90
2017,05,22,05,34,2.10
2017,05,22,05,35,1.40
2017,05,22,05,36,1.90
2017,05,22,05,37,2.50
2017,05,22,05,38,1.90
2017,05,22,05,39,2.40
2017,05,22,05,40,1.20
2017,05,22,05,41,1.60
2017,05,22,05,42,1.40
2017,05,22,05,43,1.30
2017,05,22,05,44,0.80
2017,05,22,05,45,0.90
2017,05,22,05,46,1.90
2017,05,22,05,47,1.90
2017,05,22,05,48,2.20
2017,05,22,05,49,2.10
2017,05,22,05,50,2.10
2017,05,22,05,51,1.70
2017,05,22,05,52,1.20
2017,05,22,05,53,0.90
2017,05,22,05,54,1.10
2017,05,22,05,55,0.00
2017,05,22,05,56,0.00
2017,05,22,05,57,0.00
2017,05,22,05,58,0.00
2017,05,22,05,59,0.00
2017,05,22,06,00,1.00
2017,05,22,06,01,1.60
2017,05,22,06,02,0.50
2017,05,22,06,03,0.10
2017,05,22,06,04,1.30
2017,05,22,06,05,1.90
2017,05,22,06,06,0.80
2017,05,22,06,07,0.70
2017,05,22,06,08,0.90
2017,05,22,06,09,0.70
2017,05,22,06,10,1.00
2017,05,22,06,11,0.30
2017,05,22,06,12,1.60
2017,05,22,06,13,3.70
2017,05,22,06,14,2.20
2017,05,22,06,15,3.30
2017,05,22,06,16,1.80
2017,05,22,06,17,2.30
2017,05,22,06,18,1.40
2017,05,22,06,19,1.60
2017,05,22,06,20,1.00
2017,05,22,06,21,1.60
2017,05,22,06,22,1.50
2017,05,22,06,23,1.50
2017,05,22,06,24,2.10
2017,05,22,06,25,2.50
2017,05,22,06,26,1.90
2017,05,22,06,27,1.20
2017,05,22,06,28,2.60
2017,05,22,06,29,3.00
2017,05,22,06,30,1.60
2017,05,22,06,31,2.70
2017,05,22,06,32,2.30
2017,05,22,06,33,2.60
2017,05,22,06,34,1.50
2017,05,22,06,35,1.00
2017,05,22,06,36,2.10
2017,05,22,06,37,2.10
2017,05,22,06,38,0.20
2017,05,22,06,39,0.00
2017,05,22,06,40,1.80
2017,05,22,06,41,2.10
2017,05,22,06,42,1.90
2017,05,22,06,43,0.80
2017,05,22,06,44,0.90
2017,05,22,06,45,1.60
2017,05,22,06,46,0.20
2017,05,22,06,47,0.30
2017,05,22,06,48,0.20
2017,05,22,06,49,0.00
2017,05,22,06,50,1.00
2017,05,22,06,51,1.10
2017,05,22,06,52,3.50
2017,05,22,06,53,4.20
2017,05,22,06,54,0.90
2017,05,22,06,55,0.80
2017,05,22,06,56,2.70
2017,05,22,06,57,1.70
2017,05,22,06,58,3.80
2017,05,22,06,59,2.40
2017,05,22,07,00,2.70
2017,05,22,07,01,2.10
2017,05,22,07,02,2.60
2017,05,22,07,03,2.80
2017,05,22,07,04,2.60
2017,05,22,07,05,2.00
2017,05,22,07,06,2.20
2017,05,22,07,07,2.50
2017,05,22,07,08,2.10
2017,05,22,07,09,2.70
2017,05,22,07,10,3.40
2017,05,22,07,11,3.30
2017,05,22,07,12,1.50
2017,05,22,07,13,3.40
2017,05,22,07,14,4.60
2017,05,22,07,15,4.70
2017,05,22,07,16,3.60
2017,05,22,07,17,5.20
2017,05,22,07,18,3.50
2017,05,22,07,19,3.30
2017,05,22,07,20,3.50
2017,05,22,07,21,1.20
2017,05,22,07,22,2.30
2017,05,22,07,23,4.00
2017,05,22,07,24,3.50
2017,05,22,07,25,3.20
2017,05,22,07,26,4.00
2017,05,22,07,27,1.70
2017,05,22,07,28,2.60
2017,05,22,07,29,5.60
2017,05,22,07,30,5.30
2017,05,22,07,31,2.60
2017,05,22,07,32,1.90
2017,05,22,07,33,1.10
2017,05,22,07,34,4.90
2017,05,22,07,35,5.60
2017,05,22,07,36,4.20
2017,05,22,07,37,4.50
2017,05,22,07,38,2.70
2017,05,22,07,39,2.90
2017,05,22,07,40,4.20
2017,05,22,07,41,5.50
2017,05,22,07,42,2.90
2017,05,22,07,43,4.40
2017,05,22,07,44,3.40
2017,05,22,07,45,1.30
2017,05,22,07,46,4.80
2017,05,22,07,47,2.80
2017,05,22,07,48,4.20
2017,05,22,07,49,6.50
2017,05,22,07,50,2.70
2017,05,22,07,51,3.90
2017,05,22,07,52,2.20
2017,05,22,07,53,2.80
2017,05,22,07,54,2.40
2017,05,22,07,55,5.60
2017,05,22,07,56,3.60
2017,05,22,07,57,3.90
2017,05,22,07,58,2.90
2017,05,22,07,59,2.80
2017,05,22,08,00,4.10
2017,05,22,08,01,3.70
2017,05,22,08,02,3.10
2017,05,22,08,03,4.60
2017,05,22,08,04,3.10
2017,05,22,08,05,1.70
2017,05,22,08,06,4.30
2017,05,22,08,07,5.40
2017,05,22,08,08,5.30
2017,05,22,08,09,3.50
2017,05,22,08,10,5.70
2017,05,22,08,11,4.80
2017,05,22,08,12,7.70
2017,05,22,08,13,4.10
2017,05,22,08,14,3.90
2017,05,22,08,15,5.70
2017,05,22,08,16,3.80
2017,05,22,08,17,3.80
2017,05,22,08,18,5.40
2017,05,22,08,19,4.60
2017,05,22,08,20,2.60
2017,05,22,08,21,7.90
2017,05,22,08,22,4.70
2017,05,22,08,23,4.30
2017,05,22,08,24,3.50
2017,05,22,08,25,5.10
2017,05,22,08,26,5.70
2017,05,22,08,27,3.30
2017,05,22,08,28,3.30
2017,05,22,08,29,3.20
2017,05,22,08,30,3.50
2017,05,22,08,31,3.10
2017,05,22,08,32,3.20
2017,05,22,08,33,3.50
2017,05,22,08,34,2.60
2017,05,22,08,35,2.90
2017,05,22,08,36,4.00
2017,05,22,08,37,4.70
2017,05,22,08,38,2.00
2017,05,22,08,39,3.50
2017,05,22,08,40,4.40
2017,05,22,08,41,4.90
2017,05,22,08,42,8.00
2017,05,22,08,43,6.40
2017,05,22,08,44,7.50
2017,05,22,08,45,2.40
2017,05,22,08,46,2.30
2017,05,22,08,47,4.90
2017,05,22,08,48,6.20
2017,05,22,08,49,4.80
2017,05,22,08,50,5.50
2017,05,22,08,51,4.60
2017,05,22,08,52,5.70
2017,05,22,08,53,5.90
2017,05,22,08,54,7.60
2017,05,22,08,55,6.50
2017,05,22,08,56,6.10
2017,05,22,08,57,4.70
2017,05,22,08,58,3.80
2017,05,22,08,59,3.90
2017,05,22,09,00,5.80
2017,05,22,09,01,5.40
2017,05,22,09,02,5.40
2017,05,22,09,03,2.90
2017,05,22,09,04,3.20
2017,05,22,09,05,3.80
2017,05,22,09,06,3.90
2017,05,22,09,07,8.20
2017,05,22,09,08,5.50
2017,05,22,09,09,4.30
2017,05,22,09,10,3.60
2017,05,22,09,11,5.90
2017,05,22,09,12,3.30
2017,05,22,09,13,2.70
2017,05,22,09,14,3.70
2017,05,22,09,15,4.90
2017,05,22,09,16,4.00
2017,05,22,09,17,6.80
2017,05,22,09,18,4.60
2017,05,22,09,19,2.50
2017,05,22,09,20,4.00
2017,05,22,09,21,5.10
2017,05,22,09,22,5.40
2017,05,22,09,23,3.10
2017,05,22,09,24,4.40
2017,05,22,09,25,3.80
2017,05,22,09,26,4.70
2017,05,22,09,27,3.50
2017,05,22,09,28,2.90
2017,05,22,09,29,3.90
2017,05,22,09,30,3.40
2017,05,22,09,31,2.80
2017,05,22,09,32,4.90
2017,05,22,09,33,6.90
2017,05,22,09,34,6.90
2017,05,22,09,35,3.10
2017,05,22,09,36,3.60
2017,05,22,09,37,3.90
2017,05,22,09,38,3.20
2017,05,22,09,39,3.60
2017,05,22,09,40,3.80
2017,05,22,09,41,2.70
2017,05,22,09,42,1.60
2017,05,22,09,43,3.50
2017,05,22,09,44,1.70
2017,05,22,09,45,3.60
2017,05,22,09,46,3.50
2017,05,22,09,47,2.90
2017,05,22,09,48,6.80
2017,05,22,09,49,1.10
2017,05,22,09,50,3.80
2017,05,22,09,51,4.20
2017,05,22,09,52,4.80
2017,05,22,09,53,1.90
2017,05,22,09,54,3.90
2017,05,22,09,55,5.40
2017,05,22,09,56,4.20
2017,05,22,09,57,4.50
2017,05,22,09,58,2.00
2017,05,22,09,59,3.10
2017,05,22,10,00,3.40
2017,05,22,10,01,3.00
2017,05,22,10,02,8.00
2017,05,22,10,03,4.30
2017,05,22,10,04,3.30
2017,05,22,10,05,2.60
2017,05,22,10,06,3.50
2017,05,22,10,07,2.60
2017,05,22,10,08,5.40
2017,05,22,10,09,5.50
2017,05,22,10,10,1.90
2017,05,22,10,11,6.70
2017,05,22,10,12,2.00
2017,05,22,10,13,4.00
2017,05,22,10,14,5.50
2017,05,22,10,15,7.30
2017,05,22,10,16,7.70
2017,05,22,10,17,6.80
2017,05,22,10,18,4.80
2017,05,22,10,19,9.10
2017,05,22,10,20,4.10
2017,05,22,10,21,3.80
2017,05,22,10,22,5.50
2017,05,22,10,23,6.80
2017,05,22,10,24,4.30
2017,05,22,10,25,7.10
2017,05,22,10,26,3.10
2017,05,22,10,27,4.70
2017,05,22,10,28,7.00
2017,05,22,10,29,3.80
2017,05,22,10,30,6.40
2017,05,22,10,31,5.90
2017,05,22,10,32,5.40
2017,05,22,10,33,8.10
2017,05,22,10,34,4.90
2017,05,22,10,35,5.60
2017,05,22,10,36,6.10
2017,05,22,10,37,6.00
2017,05,22,10,38,3.90
2017,05,22,10,39,2.10
2017,05,22,10,40,3.30
2017,05,22,10,41,4.70
2017,05,22,10,42,5.20
2017,05,22,10,43,2.70
2017,05,22,10,44,5.20
2017,05,22,10,45,8.40
2017,05,22,10,46,8.90
2017,05,22,10,47,3.90
2017,05,22,10,48,2.70
2017,05,22,10,49,3.70
2017,05,22,10,50,3.70
2017,05,22,10,51,7.00
2017,05,22,10,52,5.60
2017,05,22,10,53,5.50
2017,05,22,10,54,4.70
2017,05,22,10,55,6.00
2017,05,22,10,56,4.50
2017,05,22,10,57,6.30
2017,05,22,10,58,6.10
2017,05,22,10,59,5.10
2017,05,22,11,00,7.10
2017,05,22,11,01,6.40
2017,05,22,11,02,8.00
2017,05,22,11,03,5.10
2017,05,22,11,04,4.70
2017,05,22,11,05,5.50
2017,05,22,11,06,6.60
2017,05,22,11,07,7.00
2017,05,22,11,08,5.30
2017,05,22,11,09,4.90
2017,05,22,11,10,7.40
2017,05,22,11,11,9.20
2017,05,22,11,12,4.30
2017,05,22,11,13,4.40
2017,05,22,11,14,3.00
2017,05,22,11,15,4.70
2017,05,22,11,16,4.70
2017,05,22,11,17,2.80
2017,05,22,11,18,6.30
2017,05,22,11,19,6.80
2017,05,22,11,20,4.70
2017,05,22,11,21,7.00
2017,05,22,11,22,7.20
2017,05,22,11,23,6.70
2017,05,22,11,24,6.50
2017,05,22,11,25,6.00
2017,05,22,11,26,5.20
2017,05,22,11,27,3.50
2017,05,22,11,28,5.80
2017,05,22,11,29,5.10
2017,05,22,11,30,3.00
2017,05,22,11,31,3.60
2017,05,22,11,32,3.00
2017,05,22,11,33,3.90
2017,05,22,11,34,4.80
2017,05,22,11,35,7.60
2017,05,22,11,36,5.00
2017,05,22,11,37,2.70
2017,05,22,11,38,2.70
2017,05,22,11,39,4.30
2017,05,22,11,40,4.40
2017,05,22,11,41,3.50
2017,05,22,11,42,7.10
2017,05,22,11,43,4.30
2017,05,22,11,44,4.60
2017,05,22,11,45,5.00
2017,05,22,11,46,3.60
2017,05,22,11,47,8.90
2017,05,22,11,48,4.70
2017,05,22,11,49,9.70
2017,05,22,11,50,1.90
2017,05,22,11,51,6.30
2017,05,22,11,52,5.60
2017,05,22,11,53,5.30
2017,05,22,11,54,2.70
2017,05,22,11,55,8.00
2017,05,22,11,56,5.10
2017,05,22,11,57,3.50
2017,05,22,11,58,4.70
2017,05,22,11,59,4.30
2017,05,22,12,00,4.30
2017,05,22,12,01,4.30
2017,05,22,12,02,3.00
2017,05,22,12,03,6.30
2017,05,22,12,04,5.30
2017,05,22,12,05,7.70
2017,05,22,12,06,8.80
2017,05,22,12,07,7.30
2017,05,22,12,08,5.90
2017,05,22,12,09,3.30
2017,05,22,12,10,7.70
2017,05,22,12,11,4.70
2017,05,22,12,12,6.20
2017,05,22,12,13,4.80
2017,05,22,12,14,6.70
2017,05,22,12,15,6.80
2017,05,22,12,16,8.40
2017,05,22,12,17,5.10
2017,05,22,12,18,4.40
2017,05,22,12,19,6.60
2017,05,22,12,20,3.30
2017,05,22,12,21,6.30
2017,05,22,12,22,6.70
2017,05,22,12,23,5.30
2017,05,22,12,24,7.40
2017,05,22,12,25,6.50
2017,05,22,12,26,6.90
2017,05,22,12,27,8.50
2017,05,22,12,28,6.00
2017,05,22,12,29,4.80
2017,05,22,12,30,8.50
2017,05,22,12,31,6.40
2017,05,22,12,32,5.90
2017,05,22,12,33,10.20
2017,05,22,12,34,3.90
2017,05,22,12,35,3.00
2017,05,22,12,36,2.20
2017,05,22,12,37,5.30
2017,05,22,12,38,7.40
2017,05,22,12,39,8.50
2017,05,22,12,40,5.30
2017,05,22,12,41,7.70
2017,05,22,12,42,2.70
2017,05,22,12,43,5.40
2017,05,22,12,44,1.90
2017,05,22,12,45,4.10
2017,05,22,12,46,4.10
2017,05,22,12,47,4.10
2017,05,22,12,48,7.60
2017,05,22,12,49,5.80
2017,05,22,12,50,1.70
2017,05,22,12,51,3.00
2017,05,22,12,52,4.50
2017,05,22,12,53,6.70
2017,05,22,12,54,5.20
2017,05,22,12,55,4.50
2017,05,22,12,56,6.70
2017,05,22,12,57,5.80
2017,05,22,12,58,5.10
2017,05,22,12,59,6.80
2017,05,22,13,00,6.90
2017,05,22,13,01,4.60
2017,05,22,13,02,6.40
2017,05,22,13,03,4.70
2017,05,22,13,04,6.20
2017,05,22,13,05,3.10
2017,05,22,13,06,3.90
2017,05,22,13,07,6.40
2017,05,22,13,08,4.40
2017,05,22,13,09,7.20
2017,05,22,13,10,5.60
2017,05,22,13,11,3.80
2017,05,22,13,12,3.50
2017,05,22,13,13,2.60
2017,05,22,13,14,3.60
2017,05,22,13,15,5.70
2017,05,22,13,16,3.20
2017,05,22,13,17,5.10
2017,05,22,13,18,6.40
2017,05,22,13,19,4.40
2017,05,22,13,20,2.50
2017,05,22,13,21,3.60
2017,05,22,13,22,6.10
2017,05,22,13,23,5.80
2017,05,22,13,24,5.10
2017,05,22,13,25,7.50
2017,05,22,13,26,2.40
2017,05,22,13,27,2.20
2017,05,22,13,28,5.90
2017,05,22,13,29,7.30
2017,05,22,13,30,5.10
2017,05,22,13,31,7.60
2017,05,22,13,32,8.30
2017,05,22,13,33,8.40
2017,05,22,13,34,3.50
2017,05,22,13,35,4.30
2017,05,22,13,36,4.80
2017,05,22,13,37,6.40
2017,05,22,13,38,4.80
2017,05,22,13,39,5.90
2017,05,22,13,40,4.80
2017,05,22,13,41,3.90
2017,05,22,13,42,4.90
2017,05,22,13,43,4.50
2017,05,22,13,44,10.20
2017,05,22,13,45,8.00
2017,05,22,13,46,7.50
2017,05,22,13,47,8.00
2017,05,22,13,48,5.30
2017,05,22,13,49,7.90
2017,05,22,13,50,6.50
2017,05,22,13,51,8.70
2017,05,22,13,52,3.50
2017,05,22,13,53,3.90
2017,05,22,13,54,3.80
2017,05,22,13,55,5.90
2017,05,22,13,56,7.10
2017,05,22,13,57,4.70
2017,05,22,13,58,3.50
2017,05,22,13,59,7.20
2017,05,22,14,00,7.30
2017,05,22,14,01,6.60
2017,05,22,14,02,6.00
2017,05,22,14,03,4.00
2017,05,22,14,04,8.90
2017,05,22,14,05,5.80
2017,05,22,14,06,4.20
2017,05,22,14,07,6.50
2017,05,22,14,08,6.80
2017,05,22,14,09,3.90
2017,05,22,14,10,5.40
2017,05,22,14,11,7.00
2017,05,22,14,12,6.40
2017,05,22,14,13,13.30
2017,05,22,14,14,9.00
2017,05,22,14,15,4.80
2017,05,22,14,16,4.10
2017,05,22,14,17,7.60
2017,05,22,14,18,4.40
2017,05,22,14,19,3.90
2017,05,22,14,20,5.20
2017,05,22,14,21,4.80
2017,05,22,14,22,6.10
2017,05,22,14,23,7.40
2017,05,22,14,24,9.20
2017,05,22,14,25,9.40
2017,05,22,14,26,4.60
2017,05,22,14,27,4.90
2017,05,22,14,28,4.40
2017,05,22,14,29,7.90
2017,05,22,14,30,3.00
2017,05,22,14,31,2.30
2017,05,22,14,32,5.10
2017,05,22,14,33,3.90
2017,05,22,14,34,3.00
2017,05,22,14,35,4.00
2017,05,22,14,36,3.10
2017,05,22,14,37,3.90
2017,05,22,14,38,2.50
2017,05,22,14,39,1.50
2017,05,22,14,40,2.80
2017,05,22,14,41,7.50
2017,05,22,14,42,11.00
2017,05,22,14,43,3.20
2017,05,22,14,44,5.80
2017,05,22,14,45,3.30
2017,05,22,14,46,4.20
2017,05,22,14,47,4.70
2017,05,22,14,48,6.30
2017,05,22,14,49,4.40
2017,05,22,14,50,1.40
2017,05,22,14,51,3.30
2017,05,22,14,52,6.20
2017,05,22,14,53,7.70
2017,05,22,14,54,8.10
2017,05,22,14,55,4.80
2017,05,22,14,56,5.10
2017,05,22,14,57,6.80
2017,05,22,14,58,9.10
2017,05,22,14,59,6.50
2017,05,22,15,00,4.20
2017,05,22,15,01,4.30
2017,05,22,15,02,1.90
2017,05,22,15,03,3.20
2017,05,22,15,04,4.30
2017,05,22,15,05,6.40
2017,05,22,15,06,3.00
2017,05,22,15,07,7.50
2017,05,22,15,08,5.80
2017,05,22,15,09,6.30
2017,05,22,15,10,6.70
2017,05,22,15,11,6.50
2017,05,22,15,12,8.40
2017,05,22,15,13,3.90
2017,05,22,15,14,4.40
2017,05,22,15,15,4.90
2017,05,22,15,16,6.10
2017,05,22,15,17,6.40
2017,05,22,15,18,6.40
2017,05,22,15,19,6.40
2017,05,22,15,20,6.40
2017,05,22,15,21,6.60
2017,05,22,15,22,5.20
2017,05,22,15,23,3.30
2017,05,22,15,24,3.00
2017,05,22,15,25,5.60
2017,05,22,15,26,6.40
2017,05,22,15,27,5.90
2017,05,22,15,28,5.40
2017,05,22,15,29,6.80
2017,05,22,15,30,5.80
2017,05,22,15,31,6.70
2017,05,22,15,32,7.50
2017,05,22,15,33,5.90
2017,05,22,15,34,5.60
2017,05,22,15,35,7.10
2017,05,22,15,36,4.20
2017,05,22,15,37,6.60
2017,05,22,15,38,6.00
2017,05,22,15,39,4.20
2017,05,22,15,40,4.10
2017,05,22,15,41,3.90
2017,05,22,15,42,4.80
2017,05,22,15,43,2.30
2017,05,22,15,44,4.60
2017,05,22,15,45,4.30
2017,05,22,15,46,4.80
2017,05,22,15,47,6.80
2017,05,22,15,48,5.50
2017,05,22,15,49,6.80
2017,05,22,15,50,4.10
2017,05,22,15,51,5.10
2017,05,22,15,52,6.80
2017,05,22,15,53,4.70
2017,05,22,15,54,5.60
2017,05,22,15,55,5.50
2017,05,22,15,56,5.20
2017,05,22,15,57,6.00
2017,05,22,15,58,3.80
2017,05,22,15,59,2.90
2017,05,22,16,00,2.50
2017,05,22,16,01,4.40
2017,05,22,16,02,4.40
2017,05,22,16,03,4.90
2017,05,22,16,04,6.40
2017,05,22,16,05,4.10
2017,05,22,16,06,6.00
2017,05,22,16,07,5.10
2017,05,22,16,08,6.20
2017,05,22,16,09,5.10
2017,05,22,16,10,5.10
2017,05,22,16,11,3.80
2017,05,22,16,12,6.20
2017,05,22,16,13,6.40
2017,05,22,16,14,3.70
2017,05,22,16,15,4.10
2017,05,22,16,16,4.70
2017,05,22,16,17,5.90
2017,05,22,16,18,7.00
2017,05,22,16,19,5.40
2017,05,22,16,20,4.50
2017,05,22,16,21,3.70
2017,05,22,16,22,3.70
2017,05,22,16,23,4.20
2017,05,22,16,24,3.90
2017,05,22,16,25,5.60
2017,05,22,16,26,6.80
2017,05,22,16,27,6.00
2017,05,22,16,28,6.60
2017,05,22,16,29,6.30
2017,05,22,16,30,5.00
2017,05,22,16,31,4.70
2017,05,22,16,32,5.40
2017,05,22,16,33,5.70
2017,05,22,16,34,3.90
2017,05,22,16,35,3.10
2017,05,22,16,36,4.70
2017,05,22,16,37,6.30
2017,05,22,16,38,3.50
2017,05,22,16,39,3.60
2017,05,22,16,40,1.90
2017,05,22,16,41,2.80
2017,05,22,16,42,4.20
2017,05,22,16,43,4.00
2017,05,22,16,44,3.90
2017,05,22,16,45,5.60
2017,05,22,16,46,3.50
2017,05,22,16,47,3.40
2017,05,22,16,48,3.80
2017,05,22,16,49,4.30
2017,05,22,16,50,3.60
2017,05,22,16,51,3.80
2017,05,22,16,52,4.30
2017,05,22,16,53,4.10
2017,05,22,16,54,4.10
2017,05,22,16,55,4.90
2017,05,22,16,56,4.30
2017,05,22,16,57,6.10
2017,05,22,16,58,4.70
2017,05,22,16,59,4.60
2017,05,22,17,00,4.30
2017,05,22,17,01,2.90
2017,05,22,17,02,3.90
2017,05,22,17,03,4.70
2017,05,22,17,04,3.80
2017,05,22,17,05,2.30
2017,05,22,17,06,3.80
2017,05,22,17,07,3.20
2017,05,22,17,08,4.00
2017,05,22,17,09,4.70
2017,05,22,17,10,4.50
2017,05,22,17,11,4.00
2017,05,22,17,12,4.50
2017,05,22,17,13,3.00
2017,05,22,17,14,5.10
2017,05,22,17,15,5.20
2017,05,22,17,16,2.30
2017,05,22,17,17,3.40
2017,05,22,17,18,5.80
2017,05,22,17,19,4.30
2017,05,22,17,20,6.00
2017,05,22,17,21,4.90
2017,05,22,17,22,6.40
2017,05,22,17,23,3.50
2017,05,22,17,24,2.50
2017,05,22,17,25,2.90
2017,05,22,17,26,3.40
2017,05,22,17,27,4.10
2017,05,22,17,28,5.00
2017,05,22,17,29,2.80
2017,05,22,17,30,3.10
2017,05,22,17,31,3.10
2017,05,22,17,32,4.80
2017,05,22,17,33,3.20
2017,05,22,17,34,2.70
2017,05,22,17,35,2.10
2017,05,22,17,36,1.20
2017,05,22,17,37,0.40
2017,05,22,17,38,1.50
2017,05,22,17,39,0.70
2017,05,22,17,40,2.30
2017,05,22,17,41,1.10
2017,05,22,17,42,3.10
2017,05,22,17,43,4.20
2017,05,22,17,44,2.40
2017,05,22,17,45,4.30
2017,05,22,17,46,5.90
2017,05,22,17,47,5.80
2017,05,22,17,48,5.10
2017,05,22,17,49,5.00
2017,05,22,17,50,4.00
2017,05,22,17,51,4.00
2017,05,22,17,52,2.20
2017,05,22,17,53,1.90
2017,05,22,17,54,3.60
2017,05,22,17,55,4.10
2017,05,22,17,56,6.80
2017,05,22,17,57,6.70
2017,05,22,17,58,4.90
2017,05,22,17,59,4.40
2017,05,22,18,00,3.10
2017,05,22,18,01,2.40
2017,05,22,18,02,2.30
2017,05,22,18,03,3.00
2017,05,22,18,04,2.70
2017,05,22,18,05,3.00
2017,05,22,18,06,1.80